Regional Weather Roundup
Issued by NWS

Home | Current Version | Previous Version | Text Only | Print | Product List | Glossary On
Versions: 1 2 3 4 5 6 7 8 9 10 11 12 13 14 15 16 17 18 19 20 21 22 23 24 25 26 27 28 29 30 31 32 33 34 35 36 37 38 39 40 41 42 43 44 45 46 47 48 49 50
000
ASHW40 PHFO 251010
RWRHI

WEATHER ROUNDUP FOR HAWAII
NATIONAL WEATHER SERVICE HONOLULU HI
1200 AM HST SAT OCT 25 2014

THIS IS AN AUTOMATED REPORT THAT HAS NOT BEEN QUALITY CONTROLLED.

NOTE..."FAIR" INDICATES FEW OR NO CLOUDS BELOW 12,000 FEET WITH NO
SIGNIFICANT WEATHER AND/OR OBSTRUCTIONS TO VISIBILITY.

* - THESE SITES REPORT LIMITED FIELDS

HIZ001>004-251100-
KAUAI-NIIHAU-

CITY           SKY/WX    TMP DP  RH WIND       PRES   REMARKS
LIHUE APT      MOCLDY    79  70  74 E12       30.06F
PORT ALLEN*    NOT AVBL
POIPU*         NOT AVBL
PRINCEVILLE*   NOT AVBL
KOKOLE POINT*  NOT AVBL
MOLOAA DAIRY*  NOT AVBL
WAIMEA HTS*    NOT AVBL
PUU OPAE*      NOT AVBL
PUU LUA*       NOT AVBL
MAKAHA RIDGE*  NOT AVBL
$$

HIZ005>011-251100-
OAHU-

CITY           SKY/WX    TMP DP  RH WIND       PRES   REMARKS
HONOLULU       PTCLDY    77  71  82 E8        30.03F
KALAELOA       PTCLDY    74  69  85 VRB3      30.04F
KANEOHE MCB    MOCLDY    79  70  74 VRB6      30.05S
WHEELER FIELD  NOT AVBL
BELLOWS*       NOT AVBL
KAHUKU*        NOT AVBL
WHEELER*       NOT AVBL
WAIANAE HARBOR NOT AVBL
DILLINGHAM*      N/A     70  68  94 E2          N/A
KAHUKU TRN*      N/A     73  68  83 E7G16       N/A
KAWAILOA*        N/A     72  68  88 E8G17       N/A
KII*             N/A     79  72  78 E15G21      N/A
MAKUA RANGE*     N/A     77  66  69 E8G16       N/A
OAHU FOREST NW NOT AVBL
SCHOFIELD BRK*   N/A     70  66  88 MISG        N/A
SCHOFIELD S*   NOT AVBL
WAIANAE VLY*   NOT AVBL
KUAOKALA*      NOT AVBL
HONOULIUULI*   NOT AVBL
MOKUOLOE IS*     N/A    N/A N/A N/A MISG        N/A
PALEHUA*       NOT AVBL
WAIAWA PHB*    NOT AVBL
$$

HIZ012>013-251100-
MOLOKAI-

CITY           SKY/WX    TMP DP  RH WIND       PRES   REMARKS
MOLOKAI AIRPT  CLEAR     76  70  82 N8G18     30.03F
KALAUPAPA      NOT AVBL
MAKAPULAPAI*   NOT AVBL
MOLOKAI 1*     NOT AVBL
PUU ALII*      NOT AVBL
$$

HIZ016-251100-
KAHOOLAWE-

CITY           SKY/WX    TMP DP  RH WIND       PRES   REMARKS
KAHOOLAWE*     NOT AVBL
HAKIOAWA*      NOT AVBL
HONOKANAIA*      N/A     75  67  75 N6G15     30.04S
KANELOA*         N/A     73  66  78 NE7G18    29.26F
KEALIALALO*    NOT AVBL
LUA MAKIKA*    NOT AVBL
$$

HIZ014>015-251100-
LANAI-

CITY           SKY/WX    TMP DP  RH WIND       PRES   REMARKS
LANAI CITY       N/A    N/A N/A N/A MISG        N/A
LANAI 1*       NOT AVBL
$$

HIZ017>028-251100-
MAUI-

CITY           SKY/WX    TMP DP  RH WIND       PRES   REMARKS
KAHULUI        CLEAR     76  70  82 NE7       30.04S
KAPALUA-W MAUI NOT AVBL
HANA AIRPORT   PTCLDY    72  72 100 CALM      30.07S
HANA*          NOT AVBL
HALEAKALA SUMM   N/A     43  23  45 E35         N/A
MAALAEA BAY*   NOT AVBL
HALEAKALA*     NOT AVBL
KAUPO GAP*     NOT AVBL
KULA 1*          N/A     52  38  59 E3G10       N/A
$$

HIZ023>026-251100-
BIG ISLAND OF HAWAII COAST AND LOWER SLOPES-

CITY           SKY/WX    TMP DP  RH WIND       PRES   REMARKS
KAILUA KONA    PTCLDY    78  65  63 E7        30.00S
HILO           PTCLDY    71  63  75 SW7       30.04F
HONOKAA*       NOT AVBL
KAWAIHAE MWT*  NOT AVBL
KAWAIHAE*        N/A     79 N/A N/A S12         N/A
SOUTH POINT*   NOT AVBL
UPOLU AIRPORT* NOT AVBL
KAMUELA*       SUNNY     64  63  94 NE18      30.12S
HAKALAU*         N/A     46  39  76 SW3         N/A
KALOKO-HONOKO* NOT AVBL
PALI 2*          N/A     66  55  68 N12G17      N/A
KEALAKOMO*       N/A     79  64  61 N18G26      N/A
KAUPULEHU*     NOT AVBL
KAPAPALA*        N/A     62  56  80 N3G10       N/A
LOWER KAHUKU*  NOT AVBL
PUHE CS*       NOT AVBL
PUHO CS*       NOT AVBL
PTA KEAMUKU*     N/A     57  54  88 S6          N/A
WAIKOLOA*      NOT AVBL
$$

HIZ027>028-251100-
BIG ISLAND OF HAWAII INTERIOR AND SUMMMITS-

CITY           SKY/WX    TMP DP  RH WIND       PRES   REMARKS
BRADSHAW FIELD CLOUDY    49  43  78 N2        30.36S
MK VISITOR CEN NOT AVBL
MAUNA KEA*       N/A     32  -6  19 SE18        N/A  WCI  20
MAUNA LOA*     NOT AVBL
MAUNA LOA 1*   NOT AVBL
PTA KIPUKA*      N/A     57  50  77 SE6G12      N/A
PTA RANGE 17*    N/A     57  43  58 E9G17       N/A
PTA WEST*        N/A     61  45  55 SE9G24      N/A
NENE CABIN*    NOT AVBL
AHUMOA*        NOT AVBL
PTA PORTABLE*  NOT AVBL
PUU MALI*      NOT AVBL
$$

HIC003-251100-
NORTHWEST ISLANDS-

CITY           SKY/WX    TMP DP  RH WIND       PRES   REMARKS
MIDWAY ISLAND  CLEAR     77  70  78 NW3       29.99S
MIDWAY NOS*    NOT AVBL
FRENCH FRIGATE NOT AVBL
$$

PHZ110>124-180-251100-
BUOY REPORTS

STATION/POSITION TIME  TEMP    WIND        PRES    WAVE   SWELL
                       AIR SEA DIR/SP/G            HT/PER HT/DIR
                 (UTC) (F)     (DEG/KT/KT) (MB)    (FT/S) (FT/D)
BUOY 51001       NOT AVBL
BUOY 51101       NOT AVBL
BUOY 51100       0900   76 80   70/ 19/ 25 1018.3
BUOY 51003       0900   81 82  100/ 14/ 16 1016.5S   6/11   5
BUOY 51004       0948   78 81   80/ 23/ 31 1015.2F   6/13   3/300
BARBERS PT BUOY  NOT AVBL
WAIMEA BAY BUOY  1000      81                N/A     5/12
KAILUA BAY BUOY  1000      81                N/A     6/ 6   2
LANAI BUOY       1000      82                N/A     3/15   2/200
BARBERS PT 2     1000      82                N/A     4/10   2/250
PAUWELA MAUI     1000      81                N/A     5/10   2/350
HILO             1000      81                N/A     6/ 8   2/360
KANEOHE BAY BUOY NOT AVBL
HANALEI KAUAI    NOT AVBL
KAHULUI HARBOR   1000   78 81   20/  9/ 11 1017.1F
HONOLULU HARBOR  1000   79     110/  4/  7 1017.2F
KILO NALU        NOT AVBL
HILO HARBOR      1000   72     200/  4/  6 1016.8F
MOKUOLOE         1000      82              1017.6F
NAWILIWILI       1000      82                N/A
WHOTS BUOY       NOT AVBL
BUOY 51028       NOT AVBL
$$

......................KEY........................................
  SKY/WX - SKY CONDITIONS/PRESENT WEATHER
  TMP    - TEMPERATURE IN FAHRENHEIT
  DWPT   - DEWPOINT IN FAHRENHEIT
  RH     - RELATIVE HUMIDITY IN PERCENT
  WIND   - DIRECTION AND SPEED /MPH FOR ISLANDS...KTS FOR BUOYS/
  PRES   - MEAN SEA LEVEL PRESSURE IN INCHES OF HG
  VSB    - VISIBILITY IN MILES
  HX     - HEAT INDEX
  WCI    - WIND CHILL INDEX
  VRB    - VARIABLE WIND DIRECTION
  N/A    - NOT AVAILABLE



USA.gov is the U.S. government's official web portal to all federal, state and local government web resources and services.